| time (UTC) | temp F | wind direction | speed MPH | gust MPH | rain 1hr in | rain 24hr in | rain mn in | humidity % | barometer mb |
| 20260504050105 | 55 | 0 | 0.0 | 0.0 | 0.00 | 0.00 | 0.00 | 56 | 1017.0 |
| 20260504044601 | 55 | 0 | 0.0 | 1.0 | 0.00 | 0.00 | 0.00 | 58 | 1016.8 |
| 20260504044528 | 55 | 360 | 0.0 | 1.0 | 0.00 | 0.00 | 0.00 | 69 | 1016.9 |
| 20260504043054 | 55 | 0 | 0.0 | 3.0 | 0.00 | 0.00 | 0.00 | 60 | 1016.9 |
| 20260504043029 | 55 | 360 | 0.0 | 1.0 | 0.00 | 0.00 | 0.00 | 71 | 1017.2 |
| 20260504041552 | 56 | 0 | 0.0 | 0.0 | 0.00 | 0.00 | 0.00 | 60 | 1016.7 |
| 20260504041528 | 56 | 360 | 0.0 | 0.0 | 0.00 | 0.00 | 0.00 | 71 | 1016.9 |
| 20260504040056 | 57 | 0 | 0.0 | 0.0 | 0.00 | 0.00 | 0.00 | 59 | 1016.8 |
| 20260504040028 | 57 | 360 | 0.0 | 0.0 | 0.00 | 0.00 | 0.00 | 70 | 1017.0 |
| 20260504034554 | 57 | 0 | 0.0 | 0.0 | 0.00 | 0.00 | 0.00 | 60 | 1016.7 |
| 20260504034533 | 57 | 360 | 0.0 | 0.0 | 0.00 | 0.00 | 0.00 | 71 | 1017.0 |
| 20260504033054 | 58 | 0 | 0.0 | 0.0 | 0.00 | 0.00 | 0.00 | 59 | 1016.6 |
| 20260504033044 | 58 | 360 | 0.0 | 0.0 | 0.00 | 0.00 | 0.00 | 70 | 1016.9 |
| 20260504031554 | 58 | 0 | 0.0 | 0.0 | 0.00 | 0.00 | 0.00 | 59 | 1016.7 |
| 20260504031530 | 58 | 360 | 0.0 | 0.0 | 0.00 | 0.00 | 0.00 | 71 | 1016.9 |
| 20260504030054 | 59 | 0 | 0.0 | 0.0 | 0.00 | 0.00 | 0.00 | 57 | 1016.7 |
| 20260504030025 | 59 | 360 | 0.0 | 0.0 | 0.00 | 0.00 | 0.00 | 69 | 1017.0 |
| 20260504024608 | 60 | 0 | 0.0 | 0.0 | 0.00 | 0.00 | 0.00 | 58 | 1016.7 |
| 20260504024540 | 60 | 360 | 0.0 | 0.0 | 0.00 | 0.00 | 0.00 | 69 | 1016.9 |
| 20260504023057 | 61 | 0 | 0.0 | 0.0 | 0.00 | 0.00 | 0.00 | 56 | 1016.8 |
| 20260504023024 | 61 | 360 | 0.0 | 0.0 | 0.00 | 0.00 | 0.00 | 67 | 1017.0 |
| 20260504021554 | 62 | 0 | 0.0 | 0.0 | 0.00 | 0.00 | 0.00 | 56 | 1016.6 |
| 20260504021524 | 62 | 360 | 0.0 | 0.0 | 0.00 | 0.00 | 0.00 | 68 | 1016.8 |
| 20260504020054 | 62 | 0 | 0.0 | 0.0 | 0.00 | 0.00 | 0.00 | 58 | 1016.6 |
| 20260504020023 | 63 | 360 | 0.0 | 0.0 | 0.00 | 0.00 | 0.00 | 69 | 1016.7 |
| 20260504014558 | 64 | 0 | 0.0 | 0.0 | 0.00 | 0.00 | 0.00 | 56 | 1016.4 |
| 20260504014522 | 64 | 360 | 0.0 | 0.0 | 0.00 | 0.00 | 0.00 | 67 | 1016.3 |
| 20260504013056 | 65 | 0 | 0.0 | 0.0 | 0.00 | 0.00 | 0.00 | 54 | 1016.3 |
| 20260504013022 | 65 | 360 | 0.0 | 0.0 | 0.00 | 0.00 | 0.00 | 65 | 1016.3 |
| 20260504011552 | 67 | 0 | 0.0 | 0.0 | 0.00 | 0.00 | 0.00 | 49 | 1016.3 |
| 20260504011523 | 67 | 360 | 0.0 | 0.0 | 0.00 | 0.00 | 0.00 | 61 | 1016.2 |
| 20260504010021 | 68 | 360 | 0.0 | 1.0 | 0.00 | 0.00 | 0.00 | 62 | 1016.2 |
| 20260504004553 | 71 | 360 | 0.0 | 1.0 | 0.00 | 0.00 | 0.00 | 43 | 1016.2 |
| 20260504004537 | 71 | 360 | 0.0 | 1.0 | 0.00 | 0.00 | 0.00 | 55 | 1016.1 |
| 20260504003055 | 73 | 0 | 0.0 | 1.0 | 0.00 | 0.00 | 0.00 | 38 | 1016.1 |
| 20260504003021 | 73 | 188 | 0.0 | 1.0 | 0.00 | 0.00 | 0.00 | 50 | 1016.1 |
| 20260504001552 | 75 | 0 | 0.0 | 2.0 | 0.00 | 0.00 | 0.00 | 37 | 1016.1 |
| 20260504001520 | 75 | 188 | 0.0 | 2.0 | 0.00 | 0.00 | 0.00 | 48 | 1016.0 |
| 20260504000130 | 78 | 188 | 1.0 | 6.0 | 0.00 | 0.00 | 0.00 | 33 | 1016.3 |
| 20260504000018 | 78 | 188 | 2.0 | 6.0 | 0.00 | 0.00 | 0.00 | 46 | 1016.3 |
| 20260503234601 | 78 | 292 | 0.0 | 4.0 | 0.00 | 0.00 | 0.00 | 33 | 1016.5 |
| 20260503234517 | 78 | 292 | 0.0 | 2.0 | 0.00 | 0.00 | 0.00 | 44 | 1016.4 |
| 20260503233051 | 79 | 0 | 1.0 | 5.0 | 0.00 | 0.00 | 0.00 | 31 | 1016.5 |
| 20260503233017 | 79 | 293 | 0.0 | 5.0 | 0.00 | 0.00 | 0.00 | 43 | 1016.4 |
| 20260503231555 | 79 | 193 | 2.0 | 5.0 | 0.00 | 0.00 | 0.00 | 31 | 1016.6 |
| 20260503231515 | 79 | 192 | 2.0 | 5.0 | 0.00 | 0.00 | 0.00 | 41 | 1016.5 |
| 20260503230055 | 78 | 0 | 0.0 | 2.0 | 0.00 | 0.00 | 0.00 | 32 | 1016.7 |
| 20260503224555 | 78 | 0 | 0.0 | 1.0 | 0.00 | 0.00 | 0.00 | 38 | 1016.7 |
| 20260503224512 | 78 | 273 | 0.0 | 1.0 | 0.00 | 0.00 | 0.00 | 46 | 1016.6 |
| 20260503223057 | 78 | 0 | 0.0 | 4.0 | 0.00 | 0.00 | 0.00 | 30 | 1016.8 |
| 20260503223011 | 78 | 273 | 0.0 | 4.0 | 0.00 | 0.00 | 0.00 | 42 | 1016.8 |
| 20260503221600 | 79 | 202 | 0.0 | 8.0 | 0.00 | 0.00 | 0.00 | 30 | 1016.9 |
| 20260503221509 | 79 | 202 | 0.0 | 8.0 | 0.00 | 0.00 | 0.00 | 41 | 1017.0 |
| 20260503220101 | 79 | 0 | 3.0 | 7.0 | 0.00 | 0.00 | 0.00 | 28 | 1017.0 |
| 20260503220009 | 79 | 171 | 2.0 | 6.0 | 0.00 | 0.00 | 0.00 | 42 | 1017.0 |
| 20260503214553 | 79 | 201 | 4.0 | 9.0 | 0.00 | 0.00 | 0.00 | 29 | 1017.1 |
| 20260503214507 | 79 | 200 | 4.0 | 9.0 | 0.00 | 0.00 | 0.00 | 40 | 1017.3 |
| 20260503213052 | 79 | 267 | 0.0 | 7.0 | 0.00 | 0.00 | 0.00 | 31 | 1017.4 |
| 20260503213007 | 79 | 237 | 0.0 | 7.0 | 0.00 | 0.00 | 0.00 | 42 | 1017.5 |
| 20260503211610 | 79 | 236 | 2.0 | 7.0 | 0.00 | 0.00 | 0.00 | 30 | 1017.7 |
| 20260503211503 | 79 | 211 | 2.0 | 6.0 | 0.00 | 0.00 | 0.00 | 42 | 1017.8 |
| 20260503210100 | 77 | 291 | 2.0 | 7.0 | 0.00 | 0.00 | 0.00 | 42 | 1018.1 |
| 20260503210056 | 77 | 0 | 1.0 | 7.0 | 0.00 | 0.00 | 0.00 | 31 | 1017.9 |
| 20260503204559 | 78 | 265 | 1.0 | 6.0 | 0.00 | 0.00 | 0.00 | 42 | 1018.2 |
| 20260503204557 | 78 | 265 | 2.0 | 7.0 | 0.00 | 0.00 | 0.00 | 31 | 1018.0 |
| 20260503203107 | 79 | 66 | 0.0 | 3.0 | 0.00 | 0.00 | 0.00 | 31 | 1018.3 |
| 20260503203056 | 79 | 66 | 1.0 | 3.0 | 0.00 | 0.00 | 0.00 | 42 | 1018.5 |
| 20260503201557 | 79 | 167 | 3.0 | 7.0 | 0.00 | 0.00 | 0.00 | 31 | 1018.7 |
| 20260503201553 | 79 | 147 | 3.0 | 7.0 | 0.00 | 0.00 | 0.00 | 43 | 1018.8 |
| 20260503200051 | 79 | 209 | 2.0 | 5.0 | 0.00 | 0.00 | 0.00 | 45 | 1019.0 |
| 20260503194601 | 78 | 247 | 3.0 | 9.0 | 0.00 | 0.00 | 0.00 | 33 | 1019.0 |
| 20260503194550 | 78 | 247 | 2.0 | 9.0 | 0.00 | 0.00 | 0.00 | 44 | 1019.1 |
| 20260503193054 | 77 | 355 | 0.0 | 8.0 | 0.00 | 0.00 | 0.00 | 45 | 1019.3 |
| 20260503191554 | 76 | 203 | 1.0 | 10.0 | 0.00 | 0.00 | 0.00 | 34 | 1019.5 |
| 20260503191544 | 76 | 103 | 1.0 | 5.0 | 0.00 | 0.00 | 0.00 | 45 | 1019.5 |
| 20260503190056 | 77 | 323 | 3.0 | 11.0 | 0.00 | 0.00 | 0.00 | 33 | 1019.7 |
| 20260503190049 | 77 | 323 | 2.0 | 11.0 | 0.00 | 0.00 | 0.00 | 45 | 1019.7 |
| 20260503184555 | 77 | 273 | 3.0 | 10.0 | 0.00 | 0.00 | 0.00 | 45 | 1020.1 |
| 20260503184553 | 77 | 273 | 3.0 | 10.0 | 0.00 | 0.00 | 0.00 | 33 | 1019.9 |
| 20260503183053 | 77 | 319 | 3.0 | 8.0 | 0.00 | 0.00 | 0.00 | 33 | 1020.1 |
| 20260503183041 | 77 | 319 | 2.0 | 7.0 | 0.00 | 0.00 | 0.00 | 44 | 1020.4 |
| 20260503181604 | 77 | 322 | 2.0 | 8.0 | 0.00 | 0.00 | 0.00 | 35 | 1020.3 |
| 20260503181540 | 77 | 323 | 2.0 | 6.0 | 0.00 | 0.00 | 0.00 | 47 | 1020.6 |
| 20260503180052 | 76 | 220 | 4.0 | 11.0 | 0.00 | 0.00 | 0.00 | 36 | 1020.4 |
| 20260503180039 | 76 | 219 | 4.0 | 11.0 | 0.00 | 0.00 | 0.00 | 48 | 1020.9 |
| 20260503174558 | 76 | 215 | 3.0 | 11.0 | 0.00 | 0.00 | 0.00 | 45 | 1020.9 |
| 20260503174554 | 76 | 215 | 3.0 | 12.0 | 0.00 | 0.00 | 0.00 | 34 | 1020.6 |
| 20260503173059 | 76 | 201 | 2.0 | 9.0 | 0.00 | 0.00 | 0.00 | 37 | 1021.0 |
| 20260503173040 | 76 | 186 | 2.0 | 9.0 | 0.00 | 0.00 | 0.00 | 48 | 1021.2 |
| 20260503171552 | 75 | 346 | 4.0 | 10.0 | 0.00 | 0.00 | 0.00 | 41 | 1021.3 |
| 20260503171533 | 75 | 346 | 3.0 | 9.0 | 0.00 | 0.00 | 0.00 | 52 | 1021.5 |
| 20260503081553 | 47 | 0 | 0.0 | 0.0 | 0.00 | 0.01 | 0.00 | 55 | 1019.2 |
| 20260503081526 | 47 | 89 | 0.0 | 0.0 | 0.00 | 0.01 | 0.00 | 66 | 1019.6 |
| 20260503071603 | 48 | 0 | 0.0 | 0.0 | 0.00 | 0.01 | 0.00 | 56 | 1019.4 |
| 20260503071513 | 48 | 89 | 0.0 | 0.0 | 0.00 | 0.01 | 0.00 | 68 | 1019.7 |
| 20260503070105 | 48 | 0 | 0.0 | 0.0 | 0.00 | 0.01 | 0.00 | 58 | 1019.5 |